Regional Weather Roundup
Issued by NWS Cleveland, OH

Home | Current Version | Previous Version | Text Only | Print | Product List | Glossary Off
Versions: 1 2 3 4 5 6 7 8 9 10 11 12 13 14 15 16 17 18 19 20 21 22 23 24 25 26 27 28 29 30 31 32 33 34 35 36 37 38 39 40 41 42 43 44 45 46 47 48 49 50

000
ASUS41 KCLE 222310
RWRCLE
OHIO REGIONAL WEATHER ROUNDUP
NATIONAL WEATHER SERVICE CLEVELAND, OH
700 PM EDT THU JUN 22 2017

NOTE: "FAIR" INDICATES FEW OR NO CLOUDS BELOW 12,000 FEET WITH NO
SIGNIFICANT WEATHER AND/OR OBSTRUCTIONS TO VISIBILITY.

OHZ001>008-015>018-024>027-034-035-043-044-230000-
   NORTHWEST OHIO

CITY           SKY/WX    TMP DP  RH WIND       PRES   REMARKS
DEFIANCE       PTSUNNY   83  66  56 SW14G23   29.81F
FINDLAY        MOSUNNY   85  65  51 SW21G33   29.84F
TOLEDO EXPRESS MOSUNNY   79  74  84 S7        29.80F
TOLEDO EXEC    CLOUDY    76  75  97 SE5       29.81F
LIMA           CLOUDY    82  68  62 SW17G26   29.87F
$$

OHZ009>014-019>023-028>033-038-089-230000-
   NORTHEAST OHIO

CITY           SKY/WX    TMP DP  RH WIND       PRES   REMARKS
CLE-HOPKINS    CLOUDY    88  66  48 S14G23    29.86F HX  90
CLE-LAKEFRONT  CLOUDY    86  64  47 SW18G29   29.83F
CUY CO. ARPT   PTSUNNY   86  66  51 S16       29.86F
LORAIN-ELYRIA  SUNNY     85  62  46 SW22G31   29.86F
ASHTABULA      CLOUDY    82  70  66 S8        29.88F
AKRON-CANTON   PTSUNNY   84  66  54 SW17      29.92F
WOOSTER        MOSUNNY   83  66  56 SW20      29.91F
MANSFIELD      MOSUNNY   82  68  62 S15       29.90F
YOUNGSTOWN     PTSUNNY   82  66  58 SW9       29.91F
$$

OHZ042-051>053-060>062-070>072-077>081-230000-
  SOUTHWEST OHIO

CITY           SKY/WX    TMP DP  RH WIND       PRES   REMARKS
CINC-COVINGTON RAIN      72  70  93 S8        29.93F FOG
CINC-LUNKEN    LGT RAIN  75  70  84 S12       29.93F
HAMILTON       CLOUDY    78  69  73 S6        29.92F
DAYTON         PTSUNNY   79  67  66 S17       29.91F
WRIGHT-PAT AFB PTSUNNY   80  69  70 S15       29.91S
DAYTON GENERAL CLOUDY    78  67  68 S16G24    29.91F
WILMINGTON     CLOUDY    75  68  78 S12G24    29.94S
$$

OHZ036-037-039>041-045>050-054>059-063>069-073>076-082>088-230000-
  CENTRAL AND SOUTHEAST OHIO

CITY           SKY/WX    TMP DP  RH WIND       PRES   REMARKS
COLUMBUS       PTSUNNY   83  69  62 S18G25    29.91F
OSU AIRPORT    MOSUNNY   82  69  64 SW18G25   29.91F
BOLTON FIELD   MOSUNNY   81  68  65 SW18G25   29.92F
RICKENBACK AFB PTSUNNY   82  69  66 SW22G28   29.92S
NEWARK         CLOUDY    83  67  58 S14G23    29.91F
MARION         CLOUDY    82  68  62 SW13      29.89F
LANCASTER      PTSUNNY   81  69  67 SW10      29.94S
ZANESVILLE     CLOUDY    82  69  64 S12       29.93F
NEW PHILLY     NOT AVBL
$$



USA.gov is the U.S. government's official web portal to all federal, state and local government web resources and services.